GW2929 Weather Reports


Display with metric or nautical units.
time (UTC)temp
F
wind
direction
speed
MPH
gust
MPH
rain 1hr
in
rain 24hr
in
rain mn
in
humidity
%
barometer
mb
20260905164728 91 186 3.0 4.0 0.00 0.00 0.00 72 1008.5
20260905164223 91 213 1.0 2.0 0.00 0.00 0.00 75 1008.5
20260905163719 91 195 1.0 2.0 0.00 0.00 0.00 74 1008.9
20260905163214 91 207 2.0 3.0 0.00 0.00 0.00 75 1008.7
20260905162710 91 201 1.0 2.0 0.00 0.00 0.00 75 1008.5
20260905162210 91 214 1.0 2.0 0.00 0.00 0.00 76 1008.8
20260905161659 90 216 0.0 1.0 0.00 0.00 0.00 78 1009.0
20260905161157 90 211 0.0 0.0 0.00 0.00 0.00 77 1008.8
20260905160650 90 188 2.0 2.0 0.00 0.00 0.00 77 1008.7
20260905160150 90 217 1.0 1.0 0.00 0.00 0.00 78 1008.6
20260905155644 91 224 0.0 1.0 0.00 0.00 0.00 77 1008.6
20260905155143 91 209 0.0 1.0 0.00 0.00 0.00 77 1008.8
20260905154638 90 242 0.0 1.0 0.00 0.00 0.00 78 1008.9
20260905154134 90 219 0.0 1.0 0.00 0.00 0.00 80 1009.0
20260905153629 89 225 0.0 1.0 0.00 0.00 0.00 80 1008.7
20260905153125 89 202 2.0 2.0 0.00 0.00 0.00 80 1008.7
20260905152620 89 199 2.0 2.0 0.00 0.00 0.00 81 1008.8
20260905152114 88 211 2.0 3.0 0.00 0.00 0.00 82 1008.7
20260905151609 88 195 1.0 2.0 0.00 0.00 0.00 82 1008.8
20260905151104 88 185 1.0 1.0 0.00 0.00 0.00 82 1008.9
20260905150600 87 181 0.0 1.0 0.00 0.00 0.00 83 1009.0
20260905150057 87 178 2.0 2.0 0.00 0.00 0.00 83 1008.8
20260905145551 88 210 1.0 2.0 0.00 0.00 0.00 82 1008.9
20260905145049 88 236 1.0 2.0 0.00 0.00 0.00 83 1008.7
20260905144545 87 226 0.0 0.0 0.00 0.00 0.00 85 1009.0
20260905144043 86 210 1.0 2.0 0.00 0.00 0.00 85 1008.8
20260905143538 86 207 0.0 1.0 0.00 0.00 0.00 87 1008.6
20260905143033 86 216 0.0 1.0 0.00 0.00 0.00 87 1008.6
20260905142531 86 199 0.0 0.0 0.00 0.00 0.00 87 1008.6
20260905142026 86 188 1.0 2.0 0.00 0.00 0.00 87 1008.6
20260905141521 86 214 0.0 0.0 0.00 0.00 0.00 88 1008.5
20260905141018 86 198 2.0 2.0 0.00 0.00 0.00 88 1008.6
20260905140513 85 207 0.0 0.0 0.00 0.00 0.00 89 1008.5
20260905140012 85 219 1.0 2.0 0.00 0.00 0.00 89 1008.5
20260905135507 85 214 0.0 0.0 0.00 0.00 0.00 90 1008.3
20260905135002 84 216 0.0 0.0 0.00 0.00 0.00 91 1008.1
20260905134501 85 215 0.0 0.0 0.00 0.00 0.00 91 1008.1
20260905134001 84 209 0.0 0.0 0.00 0.00 0.00 91 1008.0
20260905133455 84 216 1.0 2.0 0.00 0.00 0.00 91 1008.0
20260905132950 84 209 2.0 2.0 0.00 0.00 0.00 91 1008.0
20260905132445 84 206 0.0 1.0 0.00 0.00 0.00 91 1008.0
20260905131940 84 221 0.0 0.0 0.00 0.00 0.00 92 1007.9
20260905131436 84 220 0.0 0.0 0.00 0.00 0.00 93 1008.0
20260905130936 84 218 0.0 0.0 0.00 0.00 0.00 93 1007.8
20260905130430 84 202 0.0 0.0 0.00 0.00 0.00 93 1007.9
20260905125930 84 214 0.0 0.0 0.00 0.00 0.00 93 1007.8
20260905125425 83 214 0.0 0.0 0.00 0.00 0.00 93 1007.9
20260905124920 83 216 0.0 0.0 0.00 0.00 0.00 93 1007.6
20260905124417 83 221 0.0 0.0 0.00 0.00 0.00 94 1007.5
20260905123916 83 211 0.0 0.0 0.00 0.00 0.00 94 1007.7
20260905123413 83 212 0.0 0.0 0.00 0.00 0.00 94 1007.2
20260905122908 83 220 0.0 0.0 0.00 0.00 0.00 94 1007.6
20260905122408 83 213 0.0 1.0 0.00 0.00 0.00 94 1007.4
20260905121903 83 217 0.0 0.0 0.00 0.00 0.00 94 1007.3
20260905121359 83 196 0.0 1.0 0.00 0.00 0.00 94 1007.4
20260905120858 83 220 0.0 0.0 0.00 0.00 0.00 94 1007.3
20260905120357 83 215 0.0 0.0 0.00 0.00 0.00 94 1007.2
20260905115852 83 221 0.0 0.0 0.00 0.00 0.00 94 1007.2
20260905115352 83 209 0.0 1.0 0.00 0.00 0.00 94 1007.1
20260905114847 83 211 0.0 1.0 0.00 0.00 0.00 94 1007.2
20260905114346 83 218 0.0 0.0 0.00 0.00 0.00 94 1007.0
20260905113840 83 213 0.0 0.0 0.00 0.00 0.00 94 1007.2
20260905113336 83 216 0.0 0.0 0.00 0.00 0.00 94 1007.0
20260905112831 83 215 0.0 1.0 0.00 0.00 0.00 94 1007.2
20260905112325 83 197 0.0 0.0 0.00 0.00 0.00 94 1006.7
20260905111821 83 220 0.0 0.0 0.00 0.00 0.00 94 1007.1
20260905111315 83 215 0.0 0.0 0.00 0.00 0.00 94 1007.0
20260905110814 83 220 0.0 0.0 0.00 0.00 0.00 94 1006.8
20260905110308 83 216 0.0 0.0 0.00 0.00 0.00 94 1006.9
20260905105804 83 220 0.0 0.0 0.00 0.00 0.00 94 1006.9
20260905105306 83 204 0.0 0.0 0.00 0.00 0.00 94 1006.9
20260905104757 83 209 0.0 1.0 0.00 0.00 0.00 94 1007.0
20260905104254 83 216 0.0 0.0 0.00 0.00 0.00 94 1006.9
20260905103753 83 219 0.0 0.0 0.00 0.00 0.00 94 1007.0
20260905103249 83 219 0.0 0.0 0.00 0.00 0.00 94 1007.0
20260905102745 83 169 0.0 1.0 0.00 0.00 0.00 94 1007.0
20260905102242 83 215 0.0 0.0 0.00 0.00 0.00 93 1006.9
20260905101741 83 213 0.0 0.0 0.00 0.00 0.00 93 1007.0
20260905101239 83 220 0.0 0.0 0.00 0.00 0.00 93 1007.0
20260905100734 83 200 0.0 0.0 0.00 0.00 0.00 93 1006.9
20260905100230 83 202 0.0 0.0 0.00 0.00 0.00 93 1007.0
20260905095730 83 210 0.0 0.0 0.00 0.00 0.00 93 1007.1
20260905095229 83 205 0.0 0.0 0.00 0.00 0.00 93 1006.8
20260905094724 83 214 0.0 0.0 0.00 0.00 0.00 94 1007.1
20260905094219 83 223 0.0 0.0 0.00 0.00 0.00 94 1006.9
20260905093713 83 214 0.0 0.0 0.00 0.00 0.00 94 1006.7
20260905093209 83 213 0.0 0.0 0.00 0.00 0.00 94 1007.0
20260905092704 83 218 0.0 0.0 0.00 0.00 0.00 94 1007.1
20260905092200 83 218 0.0 0.0 0.00 0.00 0.00 94 1007.0
20260905091659 83 217 0.0 0.0 0.00 0.00 0.00 94 1007.1
20260905091159 83 211 0.0 0.0 0.00 0.00 0.00 94 1007.2
20260905090653 83 209 0.0 0.0 0.00 0.00 0.00 94 1007.2
20260905090149 83 221 0.0 0.0 0.00 0.00 0.00 93 1007.1
20260905085648 83 219 0.0 1.0 0.00 0.00 0.00 93 1006.9
20260905085143 84 198 1.0 1.0 0.00 0.00 0.00 93 1007.1
20260905084643 84 215 0.0 0.0 0.00 0.00 0.00 93 1007.0
20260905084138 84 206 1.0 1.0 0.00 0.00 0.00 93 1007.1
20260905083632 84 216 0.0 1.0 0.00 0.00 0.00 92 1007.1
20260905083129 84 217 0.0 0.0 0.00 0.00 0.00 92 1007.3
20260905082624 84 205 0.0 0.0 0.00 0.00 0.00 92 1007.1
20260905082120 84 212 0.0 0.0 0.00 0.00 0.00 92 1007.2
20260905081620 84 230 0.0 0.0 0.00 0.00 0.00 92 1007.2
20260905081114 84 195 0.0 0.0 0.00 0.00 0.00 92 1007.1
20260905080615 84 211 2.0 2.0 0.00 0.00 0.00 92 1007.0
20260905080109 84 197 0.0 0.0 0.00 0.00 0.00 92 1007.0
20260905075608 84 204 0.0 1.0 0.00 0.00 0.00 92 1007.1
20260905075107 84 215 0.0 0.0 0.00 0.00 0.00 91 1007.1
20260905074607 84 210 0.0 0.0 0.00 0.00 0.00 91 1007.1
20260905074103 84 211 0.0 0.0 0.00 0.00 0.00 91 1007.5
20260905073558 84 178 2.0 2.0 0.00 0.00 0.00 91 1007.3
20260905073053 84 207 1.0 1.0 0.00 0.00 0.00 91 1007.5
20260905072553 84 216 0.0 0.0 0.00 0.00 0.00 91 1007.3
20260905072048 84 219 0.0 0.0 0.00 0.00 0.00 90 1007.3
20260905071545 84 212 0.0 0.0 0.00 0.00 0.00 90 1007.5
20260905071040 84 214 0.0 0.0 0.00 0.00 0.00 90 1007.5
20260905070536 84 189 0.0 0.0 0.00 0.00 0.00 90 1007.8
20260905070032 84 214 0.0 0.0 0.00 0.00 0.00 90 1007.6
20260905065529 84 212 0.0 0.0 0.00 0.00 0.00 90 1007.6
20260905065025 84 210 0.0 0.0 0.00 0.00 0.00 90 1007.4
20260905064525 84 216 0.0 1.0 0.00 0.00 0.00 89 1007.4
20260905064020 84 211 2.0 3.0 0.00 0.00 0.00 90 1007.4
20260905063519 84 263 2.0 3.0 0.00 0.00 0.00 90 1007.7
20260905063016 84 198 1.0 1.0 0.00 0.00 0.00 89 1007.3
20260905062515 84 215 1.0 2.0 0.00 0.00 0.00 89 1007.5
20260905062010 84 211 0.0 0.0 0.00 0.00 0.00 89 1007.5
20260905061505 84 221 0.0 0.0 0.00 0.00 0.00 89 1007.6
20260905061004 84 217 0.0 0.0 0.00 0.00 0.00 89 1007.7
20260905060500 84 211 0.0 0.0 0.00 0.00 0.00 89 1008.0
20260905055955 84 204 1.0 1.0 0.00 0.00 0.00 89 1007.9
20260905055454 84 201 3.0 3.0 0.00 0.00 0.00 89 1007.9
20260905054949 84 213 0.0 0.0 0.00 0.00 0.00 88 1007.8
20260905054444 84 173 1.0 2.0 0.00 0.00 0.00 88 1008.0
20260905053939 84 211 0.0 0.0 0.00 0.00 0.00 88 1007.9
20260905053434 84 205 0.0 1.0 0.00 0.00 0.00 88 1007.9
20260905052930 84 218 0.0 0.0 0.00 0.00 0.00 88 1007.8
20260905052429 84 197 0.0 0.0 0.00 0.00 0.00 88 1007.9
20260905051929 84 211 0.0 0.0 0.00 0.00 0.00 88 1008.1
20260905051424 84 208 0.0 0.0 0.00 0.00 0.00 88 1007.9
20260905050922 84 203 0.0 0.0 0.00 0.00 0.00 88 1007.9
20260905050417 84 211 0.0 0.0 0.00 0.00 0.00 88 1008.1
20260905045913 84 206 1.0 1.0 0.00 0.00 0.00 88 1008.0
20260905045408 84 214 0.0 0.0 0.00 0.00 0.00 88 1008.0
20260905044903 84 197 0.0 0.0 0.00 0.00 0.00 88 1008.0
20260905044358 84 214 0.0 1.0 0.00 0.00 0.00 88 1008.0
20260905043856 84 209 0.0 0.0 0.00 0.00 0.00 88 1008.1
20260905043352 84 215 0.0 0.0 0.00 0.00 0.00 88 1008.0
20260905042846 84 204 1.0 1.0 0.00 0.00 0.00 89 1008.1
20260905042346 84 200 0.0 0.0 0.00 0.00 0.00 89 1008.1
20260905041835 85 200 0.0 0.0 0.00 0.00 0.00 88 1008.2
20260905041331 85 214 0.0 0.0 0.00 0.00 0.00 88 1007.8
20260905040826 85 216 0.0 0.0 0.00 0.00 0.00 88 1008.2
20260905040325 85 274 0.0 0.0 0.00 0.00 0.00 88 1008.1
20260905035825 85 209 0.0 0.0 0.00 0.00 0.00 88 1008.1
20260905035320 85 223 0.0 0.0 0.00 0.00 0.00 87 1008.1
20260905034817 85 184 1.0 1.0 0.00 0.00 0.00 87 1008.2
20260905034312 85 203 2.0 3.0 0.00 0.00 0.00 87 1008.1
20260905033810 85 212 0.0 0.0 0.00 0.00 0.00 87 1007.9
20260905033306 85 224 1.0 3.0 0.00 0.00 0.00 87 1008.2
20260905032806 85 198 0.0 0.0 0.00 0.00 0.00 87 1008.1
20260905032305 85 214 0.0 0.0 0.00 0.00 0.00 87 1008.0
20260905031756 85 206 1.0 1.0 0.00 0.00 0.00 87 1007.8
20260905031252 85 204 2.0 2.0 0.00 0.00 0.00 86 1007.7
20260905030747 85 180 2.0 2.0 0.00 0.00 0.00 86 1007.9
20260905030242 85 215 2.0 2.0 0.00 0.00 0.00 86 1008.1
20260905025736 85 193 2.0 2.0 0.00 0.00 0.00 86 1008.0
20260905025232 85 210 2.0 3.0 0.00 0.00 0.00 86 1008.2
20260905024727 85 209 0.0 1.0 0.00 0.00 0.00 86 1007.9
20260905024224 85 216 0.0 0.0 0.00 0.00 0.00 86 1007.9
20260905023723 86 160 1.0 2.0 0.00 0.00 0.00 86 1007.7
20260905023218 86 184 2.0 2.0 0.00 0.00 0.00 86 1007.7
20260905022718 86 201 1.0 1.0 0.00 0.00 0.00 86 1007.7
20260905022213 86 109 0.0 1.0 0.00 0.00 0.00 86 1007.3
20260905021707 86 231 0.0 0.0 0.00 0.00 0.00 86 1007.4
20260905021203 86 265 2.0 3.0 0.00 0.00 0.00 85 1007.2
20260905020657 86 210 0.0 0.0 0.00 0.00 0.00 85 1007.0
20260905020152 86 227 0.0 1.0 0.00 0.00 0.00 85 1007.1
20260905015651 86 177 1.0 2.0 0.00 0.00 0.00 84 1007.3
20260905015145 86 219 0.0 0.0 0.00 0.00 0.00 84 1006.9
20260905014639 86 214 0.0 0.0 0.00 0.00 0.00 84 1006.8
20260905014134 86 202 1.0 2.0 0.00 0.00 0.00 84 1007.0
20260905013631 86 206 1.0 2.0 0.00 0.00 0.00 84 1007.2
20260905013126 86 219 1.0 2.0 0.00 0.00 0.00 84 1007.0
20260905012621 86 173 1.0 2.0 0.00 0.00 0.00 84 1006.9
20260905012117 86 251 2.0 3.0 0.00 0.00 0.00 83 1006.7
20260905011613 86 192 4.0 4.0 0.00 0.00 0.00 83 1006.8
20260905011108 86 210 1.0 2.0 0.00 0.00 0.00 83 1006.5
20260905010603 87 209 2.0 2.0 0.00 0.00 0.00 82 1006.6
20260905010059 87 199 2.0 3.0 0.00 0.00 0.00 82 1006.7
20260905005554 87 208 3.0 4.0 0.00 0.00 0.00 82 1006.7
20260905005049 87 189 2.0 2.0 0.00 0.00 0.00 82 1006.2
20260905004544 87 205 1.0 1.0 0.00 0.00 0.00 82 1006.5
20260905004039 87 172 2.0 3.0 0.00 0.00 0.00 81 1006.4
20260905003535 87 221 0.0 1.0 0.00 0.00 0.00 80 1006.4
20260905003030 87 222 2.0 2.0 0.00 0.00 0.00 80 1006.3
20260905002526 87 196 4.0 6.0 0.00 0.00 0.00 79 1006.2
20260905002020 88 147 1.0 2.0 0.00 0.00 0.00 80 1006.2
20260905001515 88 155 2.0 3.0 0.00 0.00 0.00 79 1006.2
20260905001015 88 241 1.0 1.0 0.00 0.00 0.00 78 1006.1
20260905000510 89 191 2.0 2.0 0.00 0.00 0.00 77 1006.3
20260905000006 88 211 0.0 1.0 0.00 0.00 0.00 78 1006.1
20260904235501 88 202 3.0 4.0 0.00 0.00 0.00 78 1006.0
20260904235001 88 156 5.0 9.0 0.00 0.00 0.00 77 1006.2
20260904234501 89 330 2.0 4.0 0.00 0.00 0.00 77 1006.2
20260904233957 89 223 3.0 6.0 0.00 0.00 0.00 76 1006.2
20260904233452 89 89 1.0 2.0 0.00 0.00 0.00 76 1006.1
20260904232948 89 183 1.0 2.0 0.00 0.00 0.00 75 1006.2
20260904232444 89 211 1.0 1.0 0.00 0.00 0.00 75 1006.3
20260904231941 89 196 3.0 4.0 0.00 0.00 0.00 74 1006.2
20260904231436 90 351 3.0 8.0 0.00 0.00 0.00 71 1006.2
20260904230931 90 207 2.0 3.0 0.00 0.00 0.00 72 1006.7
20260904230429 90 228 2.0 4.0 0.00 0.00 0.00 72 1006.7
20260904225924 90 206 2.0 2.0 0.00 0.00 0.00 72 1006.3
20260904225422 90 250 3.0 4.0 0.00 0.00 0.00 75 1006.4
20260904224917 90 171 6.0 9.0 0.00 0.00 0.00 74 1006.4
20260904224413 91 158 5.0 8.0 0.00 0.00 0.00 71 1006.4
20260904223912 91 171 4.0 6.0 0.00 0.00 0.00 70 1006.5
20260904223412 91 197 2.0 3.0 0.00 0.00 0.00 71 1006.4
20260904222908 91 214 2.0 3.0 0.00 0.00 0.00 72 1006.5
20260904222403 91 209 2.0 4.0 0.00 0.00 0.00 72 1006.3
20260904221902 91 273 5.0 7.0 0.00 0.00 0.00 72 1006.4
20260904221357 91 182 2.0 3.0 0.00 0.00 0.00 70 1006.6
20260904220853 92 210 1.0 1.0 0.00 0.00 0.00 70 1006.6
20260904220352 92 221 4.0 7.0 0.00 0.00 0.00 69 1006.6
20260904215848 93 9 3.0 6.0 0.00 0.00 0.00 68 1006.6
20260904215342 92 238 2.0 3.0 0.00 0.00 0.00 69 1006.4
20260904214838 92 196 3.0 4.0 0.00 0.00 0.00 70 1006.5
20260904214334 92 180 1.0 2.0 0.00 0.00 0.00 69 1006.6
20260904213832 93 198 2.0 4.0 0.00 0.00 0.00 68 1006.5
20260904213327 93 350 3.0 6.0 0.00 0.00 0.00 69 1006.6
20260904212824 93 225 2.0 3.0 0.00 0.00 0.00 68 1006.3
20260904212323 93 354 3.0 3.0 0.00 0.00 0.00 67 1006.5
20260904211819 93 206 2.0 3.0 0.00 0.00 0.00 67 1006.4
20260904211314 93 225 2.0 3.0 0.00 0.00 0.00 69 1006.6
20260904210808 93 206 4.0 6.0 0.00 0.00 0.00 67 1006.3
20260904210302 93 228 2.0 2.0 0.00 0.00 0.00 68 1006.7
20260904205758 93 267 1.0 2.0 0.00 0.00 0.00 68 1006.7
20260904205254 92 211 2.0 3.0 0.00 0.00 0.00 69 1006.5
20260904204745 92 213 2.0 2.0 0.00 0.00 0.00 68 1006.9
20260904204241 92 196 3.0 3.0 0.00 0.00 0.00 71 1006.8
20260904203737 91 273 3.0 6.0 0.00 0.00 0.00 72 1006.9
20260904203233 92 222 2.0 2.0 0.00 0.00 0.00 72 1006.9
20260904202729 93 255 3.0 3.0 0.00 0.00 0.00 71 1006.9
20260904202225 94 275 3.0 4.0 0.00 0.00 0.00 70 1007.1
20260904201720 93 224 2.0 3.0 0.00 0.00 0.00 69 1007.0
20260904201220 94 206 1.0 2.0 0.00 0.00 0.00 68 1007.1
20260904200715 95 221 2.0 4.0 0.00 0.00 0.00 67 1007.0
20260904200209 96 178 2.0 3.0 0.00 0.00 0.00 62 1006.9
20260904195708 96 215 2.0 2.0 0.00 0.00 0.00 65 1007.2
20260904195201 96 239 3.0 7.0 0.00 0.00 0.00 62 1007.3
20260904194656 96 216 2.0 2.0 0.00 0.00 0.00 63 1007.1
20260904194150 94 241 1.0 2.0 0.00 0.00 0.00 68 1007.1
20260904193645 95 172 2.0 3.0 0.00 0.00 0.00 63 1007.3
20260904193142 95 205 2.0 2.0 0.00 0.00 0.00 64 1007.3
20260904192641 95 89 2.0 3.0 0.00 0.00 0.00 61 1007.3
20260904192137 95 208 2.0 2.0 0.00 0.00 0.00 64 1007.2
20260904191634 95 206 4.0 7.0 0.00 0.00 0.00 64 1007.3
20260904191130 96 209 1.0 2.0 0.00 0.00 0.00 61 1007.4
20260904190625 95 220 2.0 3.0 0.00 0.00 0.00 62 1007.5
20260904190121 95 213 3.0 4.0 0.00 0.00 0.00 61 1007.4
20260904185618 96 192 3.0 4.0 0.00 0.00 0.00 62 1007.6
20260904185112 95 157 5.0 8.0 0.00 0.00 0.00 60 1007.7
20260904184611 96 54 2.0 3.0 0.00 0.00 0.00 58 1007.8
20260904184107 97 256 4.0 6.0 0.00 0.00 0.00 59 1007.8
20260904183603 97 173 4.0 6.0 0.00 0.00 0.00 58 1007.8
20260904183057 97 193 2.0 3.0 0.00 0.00 0.00 57 1007.8
20260904182553 96 122 3.0 4.0 0.00 0.00 0.00 58 1007.9
20260904182052 97 238 2.0 3.0 0.00 0.00 0.00 60 1008.0
20260904181548 96 211 0.0 1.0 0.00 0.00 0.00 58 1007.9
20260904181042 96 186 1.0 2.0 0.00 0.00 0.00 60 1007.8
20260904180537 96 195 1.0 2.0 0.00 0.00 0.00 59 1008.1
20260904180032 96 270 2.0 3.0 0.00 0.00 0.00 58 1008.0
20260904175526 96 211 2.0 2.0 0.00 0.00 0.00 57 1007.9
20260904175024 96 215 2.0 3.0 0.00 0.00 0.00 56 1008.0
20260904174519 97 228 3.0 4.0 0.00 0.00 0.00 56 1008.2
20260904174016 97 231 3.0 4.0 0.00 0.00 0.00 57 1008.1
20260904173511 97 163 5.0 8.0 0.00 0.00 0.00 57 1008.1
20260904173007 97 214 1.0 1.0 0.00 0.00 0.00 57 1008.2
20260904172503 96 9 2.0 3.0 0.00 0.00 0.00 59 1008.2
20260904172001 94 215 1.0 2.0 0.00 0.00 0.00 62 1008.2
20260904171457 96 215 1.0 2.0 0.00 0.00 0.00 58 1008.4
20260904170952 96 233 2.0 2.0 0.00 0.00 0.00 58 1008.5
20260904170447 96 186 2.0 3.0 0.00 0.00 0.00 59 1008.6
20260904165943 96 248 2.0 2.0 0.00 0.00 0.00 59 1008.6
20260904165442 96 344 2.0 2.0 0.00 0.00 0.00 59 1008.4